Location: Chervonnoye
(48.6000°N, 34.4000°E)
Time: 00:38:06
(UTC+00:00)

KAITUO 1B - Pass Details

Date: 29 November 2021
Orbit: 486 x 507 km, 97.4° (Epoch: 16 January)

Event Time Altitude Azimuth Distance (km) Brightness Sun altitude
Rises 15:37:29 0° 179° (S) 2,584 ? -17.1°
Reaches altitude 10° 15:39:36 10° 185° (S) 1,710 ? -17.4°
Maximum altitude 15:43:10 47° 260° (W) 677 ? -18.0°
Drops below altitude 10° 15:46:48 10° 336° (NNW) 1,736 ? -18.6°
Sets 15:48:58 0° 343° (NNW) 2,629 ? -18.9°
